Temperature
14 14 14 14 14 14 14 14 14 14 14 14 14 14 14 14 14 14 14 14 14 14 15 14 15 15 15 15 15 15 15 15 15 15 15 15 15 15 15 15 15 15 15
14 14 14 14 14 14 14 14 14 14 14 14 14 13 13 13 13 14 14 14 14 14 14 14 14 14 14 14 14 14 15 15 15 15 15 15 15 15 15 15 15 15 15
14 14 14 14 14 14 14 14 14 14 13 13 13 13 13 13 13 13 13 13 14 14 14 14 14 14 14 14 14 14 14 14 15 14 14 14 14 14 14 14 14 14 15
14 14 14 13 13 13 13 13 13 13 13 13 13 13 13 13 13 13 13 13 13 14 14 14 14 14 14 14 14 14 14 14 14 14 14 14 14 14 14 14 14 14 14
14 14 13 13 13 13 13 13 13 13 13 13 13 13 13 13 13 13 13 13 13 13 13 13 13 14 14 14 14 14 14 14 14 14 14 14 14 14 14 14 14 14 14
13 13 13 13 13 13 13 13 13 13 13 13 13 13 13 12 12 12 13 13 13 13 13 13 13 13 13 13 13 13 13 14 14 14 14 14 13 13 14 14 14 14 14
13 13 13 12 12 12 12 12 12 12 12 12 12 12 12 12 12 12 12 12 12 13 13 13 13 13 13 13 13 13 13 13 14 13 13 13 13 13 13 13 13 13 14
12 12 12 12 12 12 12 12 12 12 12 12 12 12 12 12 12 12 12 12 12 12 12 12 12 12 12 13 13 13 13 13 13 13 13 13 13 13 13 13 13 13 13
12 12 12 12 12 12 12 12 12 12 11 12 12 12 11 11 12 12 12 12 12 12 12 12 12 12 12 12 12 12 13 13 13 13 13 12 12 12 13 13 13 13 13
11 11 11 11 11 11 11 11 11 11 11 11 11 11 11 11 11 11 11 11 11 11 11 11 12 12 12 12 12 12 12 12 12 12 12 12 12 12 12 12 12 12 12
11 11 11 11 11 11 11 11 11 11 11 11 11 11 11 11 11 11 11 11 11 11 11 11 11 11 11 11 11 12 12 12 12 12 11 11 11 11 12 12 12 12 12
10 10 10 10 10 10 10 10 10 10 10 10 10 10 10 10 10 10 10 10 10 10 10 10 11 11 11 11 11 11 11 11 11 11 11 11 11 11 11 11 11 11 11
9 9 9 10 10 10 10 10 10 10 10 10 10 10 10 10 10 10 10 10 10 10 10 10 10 10 10 10 10 10 10 11 11 11 10 10 10 10 10 11 11 11 11
9 9 9 9 9 9 9 9 9 9 9 9 9 9 10 10 9 9 9 9 10 10 10 10 10 10 10 10 10 10 10 10 10 10 10 10 10 10 10 10 10 10 10
8 8 8 8 8 8 8 9 9 9 9 9 9 9 9 9 9 9 9 9 9 9 9 9 9 9 9 9 9 9 9 9 9 9 9 9 9 9 9 9 9 9 9
8 8 8 8 8 8 8 8 8 8 8 8 8 8 8 8 8 8 8 8 8 9 8 9 9 9 9 9 9 9 9 9 9 9 9 9 9 9 9 9 9 9 9
7 7 7 7 7 7 7 7 7 7 7 8 8 8 8 8 8 8 8 8 8 8 8 8 8 8 8 8 8 8 8 8 8 8 8 9 8 8 8 8 8 8 8
6 6 7 7 7 7 7 7 7 7 7 7 7 7 7 7 7 7 7 7 7 7 7 7 7 7 7 7 7 7 7 7 7 7 8 8 8 8 8 8 8 8 8
5 5 6 6 6 6 6 6 6 6 6 6 6 7 7 6 6 6 7 6 6 6 6 6 7 7 7 7 6 6 6 6 7 7 7 7 7 7 7 7 7 7 7
4 5 5 5 6 6 6 6 6 5 5 6 6 6 6 6 6 6 6 6 6 6 6 6 6 6 6 6 6 5 6 6 6 6 6 6 6 6 6 6 7 7 7
4 4 4 5 5 5 5 5 5 5 5 5 5 5 5 5 5 5 5 5 5 5 5 5 5 5 5 5 5 5 5 5 5 5 5 5 5 5 6 6 6 6 6
3 3 3 4 4 4 4 4 4 4 4 4 4 4 5 5 5 5 5 5 5 5 5 5 4 4 4 4 4 4 3 4 4 4 4 4 5 5 5 5 5 5 5
3 3 3 3 3 3 3 3 3 3 3 4 4 4 4 4 4 4 4 4 4 4 4 4 4 4 4 4 4 4 3 3 3 3 3 4 4 4 4 4 4 4 4
2 2 2 2 2 2 2 3 3 3 3 3 3 3 3 3 4 4 4 4 4 4 4 4 4 3 3 3 3 3 3 3 3 2 2 3 3 3 3 3 4 4 4
1 1 1 1 2 2 2 2 2 2 2 2 2 3 3 3 3 3 3 3 3 3 3 3 3 3 3 3 3 3 3 3 3 2 2 2 3 3 3 3 3 3 3
0 1 1 1 1 1 1 1 1 1 1 2 2 2 2 2 2 2 3 3 3 3 3 3 3 3 2 2 2 2 2 2 2 2 2 2 2 2 2 2 2 2 2
Wind_Speed
2 3 7 7 9 10 11 11 12 12 12 12 12 13 13 14 14 14 14 14 14 14 14 15 16 16 17 17 18 18 18 19 19 19 19 18 18 18 18 18 18 17 19
3 5 8 8 9 10 11 12 11 11 11 11 12 12 13 13 14 14 14 14 14 14 15 16 16 17 17 17 18 18 18 19 19 19 19 18 18 18 19 19 18 17 19
4 6 8 9 10 10 11 11 11 11 11 11 11 12 12 13 13 14 14 14 14 15 16 16 16 17 17 17 17 17 18 18 18 18 17 15 16 18 18 19 19 19 19
5 7 8 10 10 11 11 11 11 12 11 11 11 12 12 12 13 13 13 14 14 15 16 16 16 16 16 16 17 17 17 18 18 16 14 14 14 17 18 19 19 19 19
5 7 8 10 10 10 10 11 11 11 11 11 11 12 12 12 12 13 13 13 14 15 16 16 16 16 16 17 17 17 17 18 17 16 14 14 13 17 18 18 18 18 19
6 7 8 10 10 10 10 10 11 11 10 11 11 11 12 12 12 12 12 13 14 14 15 15 16 16 16 17 17 17 17 17 16 15 14 13 13 16 17 17 18 18 18
6 6 8 10 11 10 10 10 10 11 11 10 11 11 12 12 12 12 12 12 13 14 14 15 15 16 16 17 17 17 17 16 16 14 14 13 14 16 16 16 16 16 17
6 6 7 9 10 10 10 10 10 10 10 10 10 11 11 11 12 12 12 12 13 13 14 14 15 15 16 16 17 17 16 15 14 13 13 13 14 15 15 15 15 16 16
7 6 6 6 8 9 9 10 10 9 10 10 10 10 10 11 12 12 12 13 13 13 13 14 14 14 15 16 16 16 16 15 14 12 12 12 14 14 15 15 14 15 15
7 6 5 6 6 7 7 9 9 9 10 10 11 11 10 10 11 12 12 13 13 13 13 13 14 14 14 15 15 15 15 15 14 12 11 11 13 14 14 14 14 14 14
5 5 5 5 6 6 6 7 8 9 9 9 9 10 10 9 9 10 11 12 12 13 13 13 13 13 13 14 14 14 14 12 12 11 11 12 13 14 14 15 14 14 14
3 4 4 5 5 5 5 6 6 7 7 8 8 8 9 8 8 9 10 11 12 12 12 12 12 12 12 11 12 13 12 12 11 10 10 12 13 13 14 14 14 14 14
3 3 3 4 4 5 4 5 4 5 6 7 7 8 8 8 7 8 7 8 9 9 10 10 10 10 10 10 10 10 11 11 10 9 10 11 12 12 13 13 13 13 14
4 3 3 4 4 4 4 3 4 4 4 4 5 7 7 6 5 5 5 6 7 7 8 8 8 9 10 10 10 10 10 9 9 9 10 11 11 12 12 12 12 12 12
3 3 3 3 4 4 3 3 4 3 3 3 4 5 6 5 4 4 4 5 6 7 7 7 7 8 8 9 9 9 9 9 9 10 10 11 11 11 11 11 11 11 11
2 2 2 3 4 4 3 2 3 3 3 3 3 4 5 6 5 4 4 4 5 6 6 6 6 6 6 7 7 8 8 8 9 9 10 10 11 10 9 9 9 9 10
1 2 3 3 4 3 3 2 3 3 3 3 3 4 5 5 6 5 4 4 4 6 7 7 7 7 6 6 6 6 7 8 8 8 9 9 9 9 9 8 9 8 8
2 2 3 3 3 3 3 2 2 2 3 3 3 4 5 5 5 5 4 3 5 6 6 5 4 4 4 4 3 4 5 6 7 8 8 8 8 8 8 8 8 8 7
2 2 3 3 3 3 3 3 3 2 2 3 2 3 4 4 5 5 4 3 5 5 4 4 3 3 4 4 3 3 4 4 5 6 7 8 8 8 8 7 8 7 7
3 3 2 3 3 3 3 3 3 3 2 2 2 2 3 4 4 5 4 4 5 4 3 3 4 3 3 4 4 4 3 3 4 5 5 6 7 7 7 7 7 6 6
4 4 3 3 3 3 2 2 1 0 0 1 1 1 3 3 4 4 4 3 3 3 4 5 4 5 3 3 3 3 3 3 2 3 4 5 5 6 7 6 6 6 5
2 2 2 2 2 2 1 1 0 0 0 0 1 1 1 3 3 3 4 3 3 3 4 5 5 3 2 3 3 3 1 1 2 1 1 2 3 4 5 4 4 4 4
1 1 0 1 1 2 2 2 2 1 1 1 1 0 0 1 2 3 4 4 3 3 5 5 6 5 5 2 2 3 3 3 1 1 1 1 1 2 2 3 2 2 2
0 0 0 1 1 1 2 2 2 1 1 2 2 1 1 1 1 2 3 4 4 3 4 5 5 4 6 5 2 1 1 3 3 1 1 1 0 0 0 0 1 1 1
1 1 0 1 1 1 1 1 2 1 1 1 1 1 1 1 1 2 2 3 3 3 4 5 5 5 5 5 4 2 1 1 2 3 3 2 2 2 2 2 2 2 2
3 3 1 1 1 1 0 1 1 1 1 1 1 2 2 2 1 2 2 2 3 3 4 4 5 6 6 6 4 4 4 4 4 3 3 3 3 3 3 3 3 3 3
Wind_Direction
191 184 151 131 123 118 114 108 100 96 94 96 93 91 88 87 85 85 82 80 79 81 82 81 80 79 78 76 76 75 75 72 72 74 79 83 85 87 85 84 84 84 88
168 164 142 128 124 120 116 110 105 101 97 98 97 94 91 90 87 84 83 81 80 83 83 84 82 82 80 78 76 76 76 73 71 71 73 76 82 85 85 84 85 87 88
125 140 137 127 121 118 117 115 110 106 102 100 100 98 95 94 92 88 84 82 79 82 82 81 81 82 80 78 76 75 75 74 71 71 70 71 78 84 86 86 86 87 87
118 127 131 125 118 114 117 118 114 109 105 105 103 102 99 96 94 91 87 84 81 81 80 80 79 79 80 79 78 77 76 74 71 70 67 67 75 85 87 87 87 86 86
100 117 129 123 119 113 112 116 115 111 107 107 107 103 103 100 96 93 90 87 84 82 82 80 78 77 79 81 81 80 78 75 71 68 65 67 75 86 87 87 87 86 85
89 101 118 118 115 111 110 112 113 111 109 108 109 106 105 102 100 97 94 91 88 85 83 82 80 79 80 81 81 80 80 76 72 69 65 67 75 85 87 87 87 87 87
95 101 115 118 115 111 107 106 110 111 109 107 108 107 107 105 104 101 99 96 92 88 86 84 82 82 83 81 78 77 78 75 73 71 67 68 78 85 86 88 89 89 89
94 96 114 120 117 115 111 107 105 110 111 109 106 105 107 108 106 106 104 101 95 91 88 85 84 82 84 81 78 75 73 74 72 70 69 72 82 86 86 87 89 90 90
83 85 87 102 109 115 113 109 105 106 107 105 104 103 100 102 104 105 107 103 97 92 88 86 86 84 83 81 78 74 71 70 68 67 69 74 82 87 87 88 88 90 91
73 71 72 84 95 98 109 113 109 106 106 103 100 99 99 99 99 101 103 104 100 94 90 87 86 84 82 80 78 74 71 67 65 65 66 77 85 88 88 89 89 89 90
71 64 61 68 76 89 101 109 111 110 110 107 102 96 94 91 92 96 98 99 99 96 92 89 86 83 78 77 76 73 71 66 65 64 66 79 87 88 88 87 88 88 89
93 75 63 66 72 83 94 97 101 105 110 106 103 98 94 95 96 96 97 96 96 93 89 86 83 77 73 70 71 70 69 66 64 62 69 78 83 85 86 87 85 84 85
122 87 69 68 70 79 85 88 83 97 106 110 111 107 103 99 97 93 90 90 91 88 82 79 74 71 72 71 70 70 69 67 64 64 70 80 83 84 86 86 88 87 85
114 100 80 67 76 73 80 85 86 83 99 111 120 120 115 104 99 98 94 93 93 93 87 80 79 75 75 75 75 72 69 66 62 63 69 79 84 86 89 88 88 90 89
100 102 104 78 82 78 75 81 82 82 89 114 129 130 128 123 115 110 105 103 101 103 98 91 87 82 78 75 74 74 70 67 64 63 66 73 82 86 88 88 86 87 89
110 115 110 94 86 83 79 78 88 95 98 102 118 128 135 133 128 117 114 108 109 113 109 105 99 90 84 82 75 72 71 70 68 67 67 68 71 79 85 86 86 86 86
121 120 112 100 80 87 88 80 82 99 111 98 111 126 128 132 131 124 118 117 122 120 114 107 97 91 88 84 76 72 70 71 72 70 70 68 68 70 77 84 83 83 85
77 99 105 88 81 79 72 66 68 88 105 103 107 125 126 126 132 131 120 123 135 126 119 112 107 105 97 92 83 69 69 74 71 72 73 72 70 67 71 77 80 78 84
76 73 102 93 87 78 67 62 59 61 82 94 99 112 125 132 133 129 126 130 141 126 118 124 118 122 118 105 93 74 65 70 70 76 74 75 77 75 72 70 73 77 79
52 54 59 81 78 71 70 74 68 57 57 68 83 109 124 129 138 134 124 133 140 130 125 126 132 119 122 120 100 72 48 54 71 73 78 81 82 82 81 79 75 74 75
51 47 41 62 63 70 77 83 91 57 52 47 67 88 130 136 143 139 133 127 143 155 157 145 134 129 119 120 102 74 31 36 56 65 81 87 84 86 85 83 79 75 76
73 51 52 46 59 60 52 48 68 137 283 341 47 84 119 142 151 154 143 148 154 157 158 159 152 142 149 145 135 132 104 17 7 23 65 99 95 89 86 88 82 76 79
79 69 57 23 34 41 50 60 56 47 33 5 328 317 303 182 172 178 166 160 165 167 176 177 175 164 171 189 163 153 161 194 226 332 343 46 100 96 95 99 91 95 108
139 104 147 121 48 38 71 108 126 142 243 269 269 258 289 239 186 189 175 172 172 173 182 185 180 181 172 185 191 188 176 159 165 201 292 305 318 202 217 201 173 139 155
48 52 97 105 68 41 92 144 159 203 291 289 295 269 269 287 191 183 186 181 181 180 186 188 185 185 186 190 190 178 156 143 164 177 222 252 287 272 262 243 219 221 214
37 25 29 91 36 15 87 175 187 213 272 282 280 266 262 280 236 197 192 193 197 195 194 197 195 194 196 194 196 193 186 181 187 184 200 213 237 260 267 251 231 230 223
Height
1526 1528 1529 1530 1531 1531 1531 1532 1533 1533 1534 1534 1534 1534 1534 1534 1535 1535 1534 1534 1534 1534 1534 1534 1534 1535 1534 1534 1534 1534 1534 1534 1533 1532 1531 1533 1535 1536 1538 1539 1539 1540 1541
1525 1527 1529 1530 1531 1531 1532 1532 1533 1533 1534 1535 1535 1535 1535 1535 1535 1535 1535 1535 1535 1535 1535 1536 1536 1536 1536 1536 1536 1536 1536 1536 1535 1535 1535 1536 1538 1539 1540 1541 1542 1542 1543
1525 1527 1528 1530 1531 1531 1532 1533 1533 1534 1534 1535 1535 1535 1535 1536 1536 1536 1536 1536 1536 1536 1536 1537 1537 1537 1537 1538 1538 1538 1538 1538 1538 1538 1538 1539 1540 1541 1542 1543 1544 1544 1545
1525 1527 1528 1529 1530 1531 1532 1533 1533 1534 1534 1535 1535 1535 1536 1536 1536 1536 1537 1537 1537 1537 1537 1538 1538 1538 1538 1539 1539 1539 1539 1540 1540 1541 1541 1541 1542 1543 1544 1545 1546 1546 1547
1525 1527 1528 1529 1530 1531 1532 1533 1533 1534 1534 1535 1535 1536 1536 1536 1537 1537 1537 1538 1538 1538 1538 1539 1539 1539 1540 1540 1540 1541 1541 1541 1542 1542 1543 1543 1544 1545 1546 1546 1547 1548 1549
1525 1526 1527 1529 1530 1531 1532 1532 1533 1534 1534 1535 1535 1536 1536 1537 1537 1537 1538 1538 1538 1539 1539 1540 1540 1541 1541 1541 1542 1542 1543 1543 1543 1544 1544 1545 1546 1547 1547 1548 1548 1549 1550
1524 1526 1527 1528 1529 1530 1531 1532 1532 1533 1534 1535 1535 1536 1536 1537 1537 1537 1538 1538 1539 1539 1540 1540 1541 1541 1542 1542 1543 1543 1544 1545 1545 1545 1546 1547 1547 1548 1548 1549 1550 1550 1551
1524 1525 1527 1528 1529 1529 1530 1531 1532 1533 1533 1534 1535 1535 1536 1536 1537 1537 1538 1539 1539 1540 1540 1541 1541 1542 1542 1543 1543 1544 1545 1546 1546 1547 1547 1548 1549 1549 1550 1550 1551 1552 1552
1524 1525 1526 1527 1528 1529 1530 1531 1532 1532 1533 1533 1534 1534 1535 1536 1537 1537 1538 1539 1539 1540 1540 1541 1541 1542 1543 1543 1544 1545 1546 1546 1547 1548 1548 1549 1550 1550 1551 1551 1552 1552 1553
1523 1524 1525 1526 1527 1528 1529 1530 1531 1532 1532 1533 1533 1534 1534 1535 1536 1537 1538 1538 1539 1540 1540 1541 1541 1542 1543 1543 1544 1545 1546 1547 1547 1548 1549 1550 1551 1551 1551 1552 1553 1553 1554
1522 1523 1524 1525 1526 1527 1528 1529 1530 1531 1531 1532 1532 1533 1534 1534 1535 1536 1536 1537 1538 1539 1540 1540 1541 1542 1543 1544 1545 1545 1546 1547 1548 1549 1549 1550 1551 1552 1552 1552 1553 1553 1554
1520 1521 1522 1523 1524 1525 1526 1527 1528 1529 1530 1530 1531 1532 1532 1533 1534 1534 1535 1536 1537 1538 1539 1540 1540 1541 1542 1543 1544 1545 1546 1547 1548 1549 1550 1551 1551 1552 1552 1552 1553 1554 1554
1518 1519 1520 1522 1523 1524 1525 1525 1526 1527 1528 1529 1530 1530 1531 1532 1533 1533 1534 1535 1536 1537 1538 1539 1540 1541 1542 1543 1544 1545 1546 1546 1548 1549 1550 1551 1551 1552 1552 1553 1554 1554 1554
1516 1517 1518 1520 1521 1522 1523 1524 1524 1525 1526 1527 1528 1529 1529 1530 1531 1532 1533 1534 1535 1536 1537 1538 1539 1540 1541 1542 1544 1544 1545 1546 1547 1548 1549 1550 1551 1552 1552 1553 1554 1554 1554
1513 1515 1516 1517 1518 1520 1521 1522 1522 1523 1524 1525 1526 1527 1527 1528 1529 1530 1531 1532 1533 1535 1536 1537 1538 1540 1541 1542 1543 1544 1544 1545 1546 1547 1548 1549 1550 1551 1552 1553 1553 1554 1554
1511 1512 1513 1515 1516 1517 1519 1519 1520 1521 1522 1523 1524 1525 1526 1526 1527 1528 1530 1531 1532 1533 1535 1536 1537 1538 1539 1540 1541 1542 1543 1544 1545 1546 1547 1548 1549 1550 1551 1552 1552 1553 1553
1509 1510 1511 1512 1514 1515 1516 1517 1518 1519 1520 1521 1522 1523 1524 1524 1525 1526 1528 1529 1530 1531 1533 1534 1536 1537 1538 1539 1540 1541 1542 1543 1544 1545 1546 1547 1548 1549 1550 1550 1551 1552 1552
1507 1508 1509 1510 1511 1513 1514 1515 1516 1517 1518 1518 1519 1520 1521 1522 1523 1524 1525 1526 1528 1529 1530 1532 1533 1534 1535 1537 1538 1539 1540 1541 1542 1544 1544 1545 1546 1547 1548 1549 1549 1550 1551
1505 1505 1506 1507 1508 1510 1511 1512 1513 1515 1515 1516 1517 1518 1519 1519 1521 1521 1522 1524 1525 1526 1528 1529 1531 1532 1533 1534 1536 1537 1538 1539 1540 1541 1542 1544 1544 1545 1546 1547 1548 1548 1549
1502 1503 1504 1505 1506 1507 1508 1509 1510 1512 1513 1514 1514 1515 1516 1517 1518 1519 1520 1521 1523 1524 1525 1526 1528 1529 1531 1532 1533 1535 1536 1537 1538 1539 1540 1541 1542 1543 1544 1545 1546 1546 1547
1501 1501 1502 1502 1503 1504 1505 1505 1506 1508 1509 1510 1511 1512 1513 1514 1515 1516 1517 1518 1520 1521 1522 1524 1525 1526 1528 1530 1531 1533 1534 1535 1536 1537 1538 1539 1540 1541 1542 1543 1543 1544 1545
1499 1499 1500 1499 1500 1501 1502 1503 1504 1505 1506 1508 1509 1509 1510 1511 1512 1513 1514 1515 1516 1518 1519 1520 1522 1522 1524 1526 1528 1529 1531 1534 1533 1534 1535 1536 1537 1538 1539 1540 1541 1542 1542
1497 1497 1498 1498 1498 1498 1499 1500 1501 1502 1503 1504 1505 1506 1507 1508 1509 1510 1511 1512 1513 1514 1515 1516 1518 1519 1520 1523 1525 1527 1528 1528 1530 1531 1532 1533 1534 1535 1536 1537 1538 1539 1539
1495 1496 1496 1496 1496 1496 1497 1497 1497 1498 1498 1499 1501 1502 1503 1505 1506 1507 1508 1509 1510 1511 1512 1513 1515 1516 1517 1518 1521 1522 1524 1524 1527 1527 1529 1530 1531 1532 1533 1534 1535 1536 1536
1493 1493 1493 1494 1494 1494 1494 1494 1495 1495 1496 1496 1498 1499 1500 1501 1502 1503 1504 1505 1506 1507 1508 1510 1511 1512 1513 1515 1516 1518 1519 1521 1522 1523 1523 1525 1527 1528 1530 1531 1532 1532 1533
1491 1491 1491 1491 1491 1492 1492 1492 1492 1492 1492 1493 1494 1495 1496 1497 1498 1499 1500 1501 1502 1503 1504 1506 1507 1508 1509 1511 1512 1514 1515 1516 1517 1519 1519 1520 1522 1524 1525 1527 1527 1528 1529